| time (UTC) | temp C | wind direction | speed KPH | gust KPH | rain 1hr cm | rain 24hr cm | rain mn cm | humidity % | barometer mb |
| 20260504185657 | 22 | 60 | 0.0 | 4.8 | 0.00 | 0.00 | 0.00 | 46 | |
| 20260504185154 | 22 | 232 | 0.0 | 3.2 | 0.00 | 0.00 | 0.00 | 46 | |
| 20260504184650 | 21 | 359 | 3.2 | 4.8 | 0.00 | 0.00 | 0.00 | 46 | |
| 20260504184145 | 22 | 93 | 1.6 | 3.2 | 0.00 | 0.00 | 0.00 | 46 | |
| 20260504183642 | 22 | 88 | 1.6 | 3.2 | 0.00 | 0.00 | 0.00 | 46 | |
| 20260504183139 | 22 | 123 | 0.0 | 3.2 | 0.00 | 0.00 | 0.00 | 43 | |
| 20260504182637 | 22 | 57 | 3.2 | 3.2 | 0.00 | 0.00 | 0.00 | 44 | |
| 20260504182134 | 21 | 85 | 3.2 | 3.2 | 0.00 | 0.00 | 0.00 | 48 | |
| 20260504181632 | 21 | 109 | 1.6 | 3.2 | 0.00 | 0.00 | 0.00 | 47 | |
| 20260504181129 | 21 | 120 | 1.6 | 3.2 | 0.00 | 0.00 | 0.00 | 47 | |
| 20260504180628 | 21 | 105 | 1.6 | 3.2 | 0.00 | 0.00 | 0.00 | 47 | |
| 20260504180126 | 21 | 140 | 0.0 | 3.2 | 0.00 | 0.00 | 0.00 | 47 | |
| 20260504175624 | 21 | 116 | 0.0 | 3.2 | 0.00 | 0.00 | 0.00 | 46 | |
| 20260504175120 | 21 | 36 | 0.0 | 4.8 | 0.00 | 0.00 | 0.00 | 45 | |
| 20260504174618 | 20 | 127 | 0.0 | 6.4 | 0.00 | 0.00 | 0.00 | 47 | |
| 20260504174114 | 21 | 69 | 0.0 | 4.8 | 0.00 | 0.00 | 0.00 | 50 | |
| 20260504173611 | 21 | 84 | 0.0 | 3.2 | 0.00 | 0.00 | 0.00 | 48 | |
| 20260504173109 | 21 | 354 | 4.8 | 4.8 | 0.00 | 0.00 | 0.00 | 49 | |
| 20260504172605 | 21 | 93 | 0.0 | 3.2 | 0.00 | 0.00 | 0.00 | 48 | |
| 20260504172102 | 20 | 93 | 1.6 | 3.2 | 0.00 | 0.00 | 0.00 | 46 | |
| 20260504171558 | 20 | 60 | 1.6 | 3.2 | 0.00 | 0.00 | 0.00 | 47 | |
| 20260504171055 | 20 | 113 | 0.0 | 3.2 | 0.00 | 0.00 | 0.00 | 48 | |
| 20260504170551 | 20 | 100 | 3.2 | 3.2 | 0.00 | 0.00 | 0.00 | 50 | |
| 20260504150935 | 17 | 85 | 1.6 | 4.8 | 0.00 | 0.00 | 0.00 | 62 | |
| 20260504150432 | 16 | 12 | 3.2 | 4.8 | 0.00 | 0.00 | 0.00 | 60 | |
| 20260504140858 | 16 | 39 | 1.6 | 4.8 | 0.00 | 0.00 | 0.00 | 57 | |
| 20260504140349 | 17 | 66 | 1.6 | 4.8 | 0.00 | 0.00 | 0.00 | 56 | |
| 20260504130817 | 15 | 58 | 3.2 | 6.4 | 0.00 | 0.00 | 0.00 | 60 | |
| 20260504130313 | 15 | 122 | 4.8 | 6.4 | 0.00 | 0.00 | 0.00 | 59 | |
| 20260504120237 | 12 | 94 | 3.2 | 4.8 | 0.00 | 0.00 | 0.00 | 63 | |
| 20260504110704 | 11 | 77 | 3.2 | 4.8 | 0.00 | 0.00 | 0.00 | 70 | |
| 20260504110200 | 11 | 82 | 3.2 | 4.8 | 0.00 | 0.00 | 0.00 | 69 | |
| 20260504100119 | 12 | 92 | 3.2 | 4.8 | 0.00 | 0.00 | 0.00 | 69 | |
| 20260504081512 | 12 | 96 | 3.2 | 3.2 | 0.00 | 0.00 | 0.00 | 74 | |
| 20260504081008 | 12 | 101 | 3.2 | 3.2 | 0.00 | 0.00 | 0.00 | 75 | |
| 20260504080504 | 12 | 89 | 3.2 | 3.2 | 0.00 | 0.00 | 0.00 | 72 | |
| 20260504050317 | 8 | 74 | 1.6 | 4.8 | 0.00 | 0.00 | 0.00 | 83 | |
| 20260504045814 | 8 | 49 | 4.8 | 6.4 | 0.00 | 0.00 | 0.00 | 83 | |
| 20260504045314 | 8 | 61 | 3.2 | 4.8 | 0.00 | 0.00 | 0.00 | 82 | |
| 20260504044812 | 8 | 72 | 3.2 | 3.2 | 0.00 | 0.00 | 0.00 | 81 | |
| 20260504044309 | 8 | 67 | 3.2 | 3.2 | 0.00 | 0.00 | 0.00 | 83 | |
| 20260504043806 | 8 | 73 | 3.2 | 4.8 | 0.00 | 0.00 | 0.00 | 81 | |
| 20260504043303 | 8 | 69 | 3.2 | 3.2 | 0.00 | 0.00 | 0.00 | 82 | |
| 20260504042801 | 8 | 94 | 3.2 | 3.2 | 0.00 | 0.00 | 0.00 | 78 | |
| 20260504042257 | 8 | 92 | 3.2 | 3.2 | 0.00 | 0.00 | 0.00 | 82 | |
| 20260504041753 | 8 | 84 | 3.2 | 3.2 | 0.00 | 0.00 | 0.00 | 83 | |
| 20260504041249 | 8 | 91 | 3.2 | 3.2 | 0.00 | 0.00 | 0.00 | 82 | |
| 20260504040745 | 8 | 95 | 3.2 | 4.8 | 0.00 | 0.00 | 0.00 | 83 | |
| 20260504040243 | 8 | 98 | 3.2 | 3.2 | 0.00 | 0.00 | 0.00 | 87 | |
| 20260504035739 | 8 | 99 | 3.2 | 4.8 | 0.00 | 0.00 | 0.00 | 87 | |
| 20260504035236 | 8 | 73 | 3.2 | 4.8 | 0.00 | 0.00 | 0.00 | 88 | |
| 20260504034734 | 8 | 70 | 3.2 | 4.8 | 0.00 | 0.00 | 0.00 | 88 | |
| 20260504034231 | 8 | 83 | 3.2 | 3.2 | 0.00 | 0.00 | 0.00 | 88 | |
| 20260504033729 | 8 | 93 | 3.2 | 3.2 | 0.00 | 0.00 | 0.00 | 88 | |
| 20260504033226 | 8 | 87 | 3.2 | 3.2 | 0.00 | 0.00 | 0.00 | 87 | |
| 20260504032723 | 8 | 68 | 3.2 | 4.8 | 0.00 | 0.00 | 0.00 | 86 | |
| 20260504032220 | 8 | 78 | 3.2 | 4.8 | 0.00 | 0.00 | 0.00 | 85 | |
| 20260504031716 | 8 | 81 | 3.2 | 4.8 | 0.00 | 0.00 | 0.00 | 85 | |
| 20260504031214 | 8 | 82 | 3.2 | 4.8 | 0.00 | 0.00 | 0.00 | 88 | |
| 20260504030709 | 8 | 86 | 3.2 | 3.2 | 0.00 | 0.00 | 0.00 | 87 | |
| 20260504030207 | 8 | 93 | 3.2 | 3.2 | 0.00 | 0.00 | 0.00 | 87 | |
| 20260504025703 | 8 | 89 | 3.2 | 4.8 | 0.00 | 0.00 | 0.00 | 87 | |
| 20260504025200 | 8 | 93 | 3.2 | 3.2 | 0.00 | 0.00 | 0.00 | 86 | |
| 20260504024657 | 8 | 88 | 3.2 | 4.8 | 0.00 | 0.00 | 0.00 | 85 | |
| 20260504024153 | 8 | 86 | 3.2 | 4.8 | 0.00 | 0.00 | 0.00 | 85 | |
| 20260504023650 | 8 | 72 | 3.2 | 4.8 | 0.00 | 0.00 | 0.00 | 84 | |
| 20260504023146 | 8 | 92 | 3.2 | 4.8 | 0.00 | 0.00 | 0.00 | 84 | |
| 20260504022643 | 8 | 86 | 3.2 | 4.8 | 0.00 | 0.00 | 0.00 | 84 | |
| 20260504022138 | 8 | 84 | 3.2 | 4.8 | 0.00 | 0.00 | 0.00 | 84 | |
| 20260504021637 | 9 | 85 | 3.2 | 4.8 | 0.00 | 0.00 | 0.00 | 85 | |
| 20260504021133 | 8 | 86 | 3.2 | 3.2 | 0.00 | 0.00 | 0.00 | 83 | |
| 20260504020630 | 9 | 73 | 3.2 | 4.8 | 0.00 | 0.00 | 0.00 | 83 | |
| 20260504020126 | 9 | 85 | 3.2 | 4.8 | 0.00 | 0.00 | 0.00 | 81 | |
| 20260504015623 | 9 | 97 | 3.2 | 3.2 | 0.00 | 0.00 | 0.00 | 79 | |
| 20260504015119 | 9 | 94 | 3.2 | 4.8 | 0.00 | 0.00 | 0.00 | 79 | |
| 20260504014615 | 9 | 88 | 3.2 | 3.2 | 0.00 | 0.00 | 0.00 | 77 | |
| 20260504014113 | 10 | 92 | 3.2 | 4.8 | 0.00 | 0.00 | 0.00 | 78 | |
| 20260504013610 | 10 | 94 | 3.2 | 3.2 | 0.00 | 0.00 | 0.00 | 75 | |
| 20260504013107 | 10 | 64 | 3.2 | 4.8 | 0.00 | 0.00 | 0.00 | 77 | |
| 20260504012604 | 10 | 89 | 3.2 | 4.8 | 0.00 | 0.00 | 0.00 | 75 | |
| 20260504012102 | 10 | 84 | 3.2 | 4.8 | 0.00 | 0.00 | 0.00 | 73 | |
| 20260504011559 | 10 | 79 | 1.6 | 3.2 | 0.00 | 0.00 | 0.00 | 72 | |
| 20260504011055 | 10 | 89 | 3.2 | 4.8 | 0.00 | 0.00 | 0.00 | 69 | |
| 20260504010550 | 10 | 75 | 3.2 | 4.8 | 0.00 | 0.00 | 0.00 | 70 | |
| 20260504010047 | 10 | 71 | 3.2 | 4.8 | 0.00 | 0.00 | 0.00 | 70 | |
| 20260504005544 | 10 | 84 | 3.2 | 3.2 | 0.00 | 0.00 | 0.00 | 66 | |
| 20260504005041 | 10 | 75 | 3.2 | 4.8 | 0.00 | 0.00 | 0.00 | 65 | |
| 20260504004539 | 11 | 60 | 3.2 | 3.2 | 0.00 | 0.00 | 0.00 | 68 | |
| 20260504004036 | 11 | 82 | 3.2 | 3.2 | 0.00 | 0.00 | 0.00 | 60 | |
| 20260504003532 | 11 | 88 | 3.2 | 3.2 | 0.00 | 0.00 | 0.00 | 60 | |
| 20260504003029 | 11 | 102 | 3.2 | 3.2 | 0.00 | 0.00 | 0.00 | 61 | |
| 20260504002525 | 12 | 89 | 1.6 | 3.2 | 0.00 | 0.00 | 0.00 | 65 | |
| 20260504002023 | 12 | 71 | 1.6 | 3.2 | 0.00 | 0.00 | 0.00 | 66 | |
| 20260504001521 | 12 | 85 | 3.2 | 3.2 | 0.00 | 0.00 | 0.00 | 62 | |
| 20260504001017 | 12 | 75 | 1.6 | 3.2 | 0.00 | 0.00 | 0.00 | 61 | |
| 20260504000514 | 13 | 64 | 1.6 | 3.2 | 0.00 | 0.00 | 0.00 | 57 | |
| 20260504000011 | 13 | 93 | 1.6 | 3.2 | 0.00 | 0.00 | 0.00 | 53 | |
| 20260503235509 | 13 | 85 | 3.2 | 3.2 | 0.00 | 0.00 | 0.00 | 51 | |
| 20260503235006 | 13 | 87 | 1.6 | 3.2 | 0.00 | 0.00 | 0.00 | 53 | |
| 20260503234503 | 13 | 72 | 3.2 | 3.2 | 0.00 | 0.00 | 0.00 | 51 | |
| 20260503234002 | 14 | 77 | 1.6 | 3.2 | 0.00 | 0.00 | 0.00 | 46 | |
| 20260503233457 | 14 | 73 | 1.6 | 3.2 | 0.00 | 0.00 | 0.00 | 48 | |
| 20260503232954 | 15 | 77 | 3.2 | 3.2 | 0.00 | 0.00 | 0.00 | 43 | |
| 20260503232451 | 15 | 73 | 0.0 | 4.8 | 0.00 | 0.00 | 0.00 | 43 | |
| 20260503231949 | 15 | 86 | 1.6 | 4.8 | 0.00 | 0.00 | 0.00 | 40 | |
| 20260503231446 | 15 | 131 | 3.2 | 4.8 | 0.00 | 0.00 | 0.00 | 39 | |
| 20260503230942 | 16 | 133 | 3.2 | 4.8 | 0.00 | 0.00 | 0.00 | 40 | |
| 20260503230439 | 15 | 125 | 9.7 | 9.7 | 0.00 | 0.00 | 0.00 | 36 | |
| 20260503225937 | 16 | 113 | 4.8 | 6.4 | 0.00 | 0.00 | 0.00 | 33 | |
| 20260503225433 | 16 | 151 | 3.2 | 4.8 | 0.00 | 0.00 | 0.00 | 37 | |
| 20260503224929 | 16 | 112 | 6.4 | 8.0 | 0.00 | 0.00 | 0.00 | 35 | |
| 20260503224426 | 16 | 143 | 6.4 | 6.4 | 0.00 | 0.00 | 0.00 | 35 | |
| 20260503223924 | 16 | 142 | 4.8 | 14.5 | 0.00 | 0.00 | 0.00 | 33 | |
| 20260503223422 | 16 | 161 | 6.4 | 11.3 | 0.00 | 0.00 | 0.00 | 35 | |
| 20260503222917 | 16 | 143 | 9.7 | 11.3 | 0.00 | 0.00 | 0.00 | 34 | |
| 20260503222416 | 16 | 128 | 4.8 | 9.7 | 0.00 | 0.00 | 0.00 | 34 | |
| 20260503221914 | 16 | 97 | 4.8 | 11.3 | 0.00 | 0.00 | 0.00 | 35 | |
| 20260503221412 | 16 | 134 | 9.7 | 12.9 | 0.00 | 0.00 | 0.00 | 32 | |
| 20260503220908 | 16 | 106 | 0.0 | 11.3 | 0.00 | 0.00 | 0.00 | 37 | |
| 20260503220404 | 16 | 143 | 4.8 | 9.7 | 0.00 | 0.00 | 0.00 | 34 | |
| 20260503215902 | 16 | 157 | 9.7 | 19.3 | 0.00 | 0.00 | 0.00 | 33 | |
| 20260503215358 | 16 | 139 | 6.4 | 9.7 | 0.00 | 0.00 | 0.00 | 35 | |
| 20260503214856 | 16 | 151 | 4.8 | 12.9 | 0.00 | 0.00 | 0.00 | 35 | |
| 20260503214353 | 16 | 145 | 8.0 | 12.9 | 0.00 | 0.00 | 0.00 | 32 | |
| 20260503213850 | 15 | 111 | 6.4 | 20.9 | 0.00 | 0.00 | 0.00 | 35 | |
| 20260503213348 | 16 | 154 | 14.5 | 19.3 | 0.00 | 0.00 | 0.00 | 32 | |
| 20260503212845 | 16 | 158 | 11.3 | 14.5 | 0.00 | 0.00 | 0.00 | 35 | |
| 20260503212343 | 16 | 196 | 0.0 | 11.3 | 0.00 | 0.00 | 0.00 | 34 | |
| 20260503211839 | 16 | 129 | 9.7 | 20.9 | 0.00 | 0.00 | 0.00 | 34 | |
| 20260503211336 | 16 | 210 | 3.2 | 22.5 | 0.00 | 0.00 | 0.00 | 32 | |
| 20260503210831 | 16 | 123 | 4.8 | 20.9 | 0.00 | 0.00 | 0.00 | 35 | |
| 20260503210329 | 16 | 122 | 6.4 | 12.9 | 0.00 | 0.00 | 0.00 | 35 | |
| 20260503205824 | 16 | 129 | 4.8 | 8.0 | 0.00 | 0.00 | 0.00 | 37 | |
| 20260503205321 | 16 | 124 | 6.4 | 16.1 | 0.00 | 0.00 | 0.00 | 35 | |
| 20260503204817 | 16 | 159 | 8.0 | 8.0 | 0.00 | 0.00 | 0.00 | 34 | |
| 20260503204315 | 16 | 140 | 3.2 | 9.7 | 0.00 | 0.00 | 0.00 | 33 | |
| 20260503203812 | 16 | 198 | 4.8 | 11.3 | 0.00 | 0.00 | 0.00 | 33 | |
| 20260503203309 | 16 | 134 | 12.9 | 29.0 | 0.00 | 0.00 | 0.00 | 34 | |
| 20260503202806 | 16 | 124 | 6.4 | 9.7 | 0.00 | 0.00 | 0.00 | 36 | |
| 20260503202304 | 16 | 137 | 6.4 | 9.7 | 0.00 | 0.00 | 0.00 | 38 | |
| 20260503201802 | 16 | 144 | 14.5 | 16.1 | 0.00 | 0.00 | 0.00 | 36 | |
| 20260503201259 | 15 | 160 | 0.0 | 17.7 | 0.00 | 0.00 | 0.00 | 34 | |
| 20260503200756 | 16 | 144 | 6.4 | 6.4 | 0.00 | 0.00 | 0.00 | 33 | |
| 20260503200251 | 15 | 176 | 4.8 | 14.5 | 0.00 | 0.00 | 0.00 | 37 | |
| 20260503195743 | 15 | 131 | 11.3 | 17.7 | 0.00 | 0.00 | 0.00 | 34 | |
| 20260503195240 | 15 | 120 | 19.3 | 25.7 | 0.00 | 0.00 | 0.00 | 34 | |
| 20260503194738 | 15 | 123 | 12.9 | 20.9 | 0.00 | 0.00 | 0.00 | 37 | |
| 20260503194233 | 15 | 163 | 4.8 | 14.5 | 0.00 | 0.00 | 0.00 | 35 | |
| 20260503193729 | 15 | 114 | 3.2 | 17.7 | 0.00 | 0.00 | 0.00 | 34 | |
| 20260503193226 | 15 | 138 | 8.0 | 19.3 | 0.00 | 0.00 | 0.00 | 37 | |
| 20260503192721 | 15 | 127 | 17.7 | 19.3 | 0.00 | 0.00 | 0.00 | 35 | |
| 20260503192217 | 15 | 133 | 17.7 | 24.1 | 0.00 | 0.00 | 0.00 | 36 | |
| 20260503191714 | 16 | 226 | 0.0 | 8.0 | 0.00 | 0.00 | 0.00 | 35 | |
| 20260503191211 | 15 | 160 | 6.4 | 14.5 | 0.00 | 0.00 | 0.00 | 38 | |
| 20260503190708 | 15 | 140 | 8.0 | 24.1 | 0.00 | 0.00 | 0.00 | 38 | |
| 20260503190204 | 15 | 199 | 11.3 | 19.3 | 0.00 | 0.00 | 0.00 | 37 |